Weather History for KSLB - January, 2012

Change the Weather History Date:

Monday, January 9, 2012

  Actual Average Record
Temperature  
Mean Temperature 35 °F -  
Max Temperature 46 °F 26 °F 53 °F (2002)
Min Temperature 24 °F 11 °F -18 °F (1999)
Degree Days  
Heating Degree Days 30    
Moisture  
Dew Point 25 °F    
Average Humidity 73    
Maximum Humidity 93    
Minimum Humidity 46    
Precipitation  
Precipitation 0.00 in - - ()
Sea Level Pressure  
Sea Level Pressure 30.06 in    
Wind  
Wind Speed 12 mph (WSW)    
Max Wind Speed 21 mph    
Max Gust Speed 26 mph    
Visibility 10 miles    
Events      
Averages and records for this station are not official NWS values.
T = Trace of Precipitation, MM = Missing Value Source: NWS Daily Summary

Daily Weather History Graph

Daily Weather History Graph

Search for Another Location

Airport or City:

Trip Planner

Search our weather history database for the weather conditions in past years. The results will help you decide how hot, cold, wet, or windy it might be!

Date:

Astronomy

Jan. 09, 2012 Rise Set
Actual Time 7:50 AM CST 5:05 PM CST
Civil Twilight 7:18 AM CST 5:37 PM CST
Nautical Twilight 6:43 AM CST 6:12 PM CST
Astronomical Twilight 6:09 AM CST 6:46 PM CST
Moon 5:54 PM CST (1/9) 7:50 AM CST (1/9)
Length of Visible Light 10h 18m
Length of Day
9h 15m
Full, 100% of the Moon is Illuminated
Jan 9
Full
Jan 16
Last Quarter
Jan 23
New
Jan 30
First Quarter
Feb 7
Full

Hourly Weather History & Observations

Time (CST) Temp. Windchill Dew Point Humidity Pressure Visibility Wind Dir Wind Speed Gust Speed Precip Events Conditions
12:15 AM 28.4 °F 18.5 °F 24.8 °F 86% 30.17 in 10.0 mi SSW 11.5 mph - N/A   Clear
12:35 AM 28.4 °F 19.1 °F 24.8 °F 86% 30.16 in 10.0 mi SW 10.4 mph - N/A   Clear
12:55 AM 28.4 °F 18.5 °F 24.8 °F 86% 30.16 in 10.0 mi SW 11.5 mph - N/A   Clear
1:15 AM 28.4 °F 18.0 °F 24.8 °F 86% 30.15 in 10.0 mi SW 12.7 mph - N/A   Clear
1:35 AM 28.4 °F 18.5 °F 26.6 °F 93% 30.14 in 10.0 mi SW 11.5 mph - N/A   Clear
1:55 AM 28.4 °F 19.7 °F 24.8 °F 86% 30.14 in 10.0 mi SW 9.2 mph - N/A   Clear
2:15 AM 26.6 °F 16.8 °F 23.0 °F 86% 30.14 in 10.0 mi SW 10.4 mph - N/A   Clear
2:55 AM 26.6 °F 16.8 °F 23.0 °F 86% 30.13 in 10.0 mi SW 10.4 mph - N/A   Clear
3:15 AM 26.6 °F 16.2 °F 24.8 °F 93% 30.12 in 10.0 mi SW 11.5 mph - N/A   Clear
3:55 AM 28.4 °F 19.1 °F 24.8 °F 86% 30.11 in 10.0 mi SW 10.4 mph - N/A   Clear
4:15 AM 26.6 °F 16.2 °F 24.8 °F 93% 30.11 in 10.0 mi SW 11.5 mph - N/A   Clear
4:55 AM 28.4 °F 18.5 °F 24.8 °F 86% 30.09 in 10.0 mi SW 11.5 mph - N/A   Clear
5:15 AM 28.4 °F 18.0 °F 24.8 °F 86% 30.09 in 10.0 mi SW 12.7 mph - N/A   Clear
5:35 AM 28.4 °F 17.5 °F 24.8 °F 86% 30.09 in 10.0 mi WSW 13.8 mph - N/A   Clear
5:55 AM 26.6 °F 16.8 °F 23.0 °F 86% 30.08 in 10.0 mi SW 10.4 mph - N/A   Clear
6:15 AM 26.6 °F 16.2 °F 23.0 °F 86% 30.07 in 10.0 mi WSW 11.5 mph - N/A   Clear
6:35 AM 26.6 °F 17.5 °F 23.0 °F 86% 30.07 in 10.0 mi WSW 9.2 mph - N/A   Clear
6:55 AM 26.6 °F 16.2 °F 23.0 °F 86% 30.06 in 10.0 mi SW 11.5 mph - N/A   Clear
7:15 AM 26.6 °F 16.8 °F 23.0 °F 86% 30.06 in 10.0 mi WSW 10.4 mph - N/A   Clear
7:35 AM 24.8 °F 16.1 °F 23.0 °F 93% 30.06 in 10.0 mi SW 8.1 mph - N/A   Clear
7:55 AM 24.8 °F 15.3 °F 21.2 °F 86% 30.06 in 10.0 mi SW 9.2 mph - N/A   Clear
8:15 AM 24.8 °F 15.3 °F 21.2 °F 86% 30.07 in 10.0 mi WSW 9.2 mph - N/A   Clear
8:35 AM 26.6 °F 16.8 °F 23.0 °F 86% 30.07 in 10.0 mi WSW 10.4 mph - N/A   Clear
8:55 AM 28.4 °F 19.1 °F 23.0 °F 80% 30.07 in 10.0 mi WSW 10.4 mph - N/A   Clear
9:15 AM 28.4 °F 18.0 °F 24.8 °F 86% 30.07 in 10.0 mi WSW 12.7 mph - N/A   Clear
9:35 AM 30.2 °F 19.8 °F 24.8 °F 80% 30.07 in 10.0 mi WSW 13.8 mph - N/A   Clear
9:55 AM 32.0 °F 22.1 °F 26.6 °F 80% 30.07 in 10.0 mi WSW 13.8 mph 18.4 mph N/A   Clear
10:15 AM 32.0 °F 23.0 °F 26.6 °F 80% 30.06 in 10.0 mi WSW 11.5 mph - N/A   Clear
10:55 AM 35.6 °F 25.9 °F 26.6 °F 70% 30.06 in 10.0 mi WSW 16.1 mph - N/A   Clear
11:15 AM 35.6 °F 25.9 °F 26.6 °F 70% 30.05 in 10.0 mi WSW 16.1 mph - N/A   Clear
11:35 AM 37.4 °F 28.5 °F 26.6 °F 65% 30.05 in 10.0 mi West 15.0 mph - N/A   Clear
11:55 AM 37.4 °F 27.5 °F 26.6 °F 65% 30.03 in 10.0 mi West 18.4 mph 24.2 mph N/A   Clear
12:15 PM 39.2 °F 29.6 °F 26.6 °F 61% 30.02 in 10.0 mi West 19.6 mph - N/A   Clear
12:35 PM 41.0 °F 31.9 °F 26.6 °F 57% 30.01 in 10.0 mi West 19.6 mph 23.0 mph N/A   Clear
12:55 PM 42.8 °F 34.0 °F 26.6 °F 53% 30.00 in 10.0 mi West 20.7 mph 24.2 mph N/A   Clear
1:15 PM 42.8 °F 34.5 °F 26.6 °F 53% 30.00 in 10.0 mi West 18.4 mph - N/A   Clear
1:35 PM 44.6 °F 37.8 °F 26.6 °F 49% 30.00 in 10.0 mi West 15.0 mph - N/A   Clear
1:55 PM 44.6 °F 37.4 °F 26.6 °F 49% 29.99 in 10.0 mi WSW 16.1 mph 19.6 mph N/A   Clear
2:15 PM 44.6 °F 36.4 °F 26.6 °F 49% 29.98 in 10.0 mi West 20.7 mph 24.2 mph N/A   Clear
2:35 PM 44.6 °F 36.6 °F 26.6 °F 49% 30.00 in 10.0 mi West 19.6 mph 24.2 mph N/A   Clear
2:55 PM 46.4 °F 39.2 °F 26.6 °F 46% 29.99 in 10.0 mi West 18.4 mph 25.3 mph N/A   Clear
3:15 PM 44.6 °F 36.4 °F 26.6 °F 49% 30.00 in 10.0 mi West 20.7 mph 25.3 mph N/A   Clear
3:35 PM 44.6 °F 36.4 °F 26.6 °F 49% 30.00 in 10.0 mi West 20.7 mph 26.5 mph N/A   Clear
3:55 PM 44.6 °F 37.2 °F 26.6 °F 49% 30.01 in 10.0 mi West 17.3 mph - N/A   Clear
4:15 PM 44.6 °F 37.4 °F 26.6 °F 49% 30.01 in 10.0 mi West 16.1 mph - N/A   Clear
4:35 PM 42.8 °F 36.2 °F 26.6 °F 53% 30.02 in 10.0 mi WSW 12.7 mph - N/A   Clear
4:55 PM 41.0 °F 35.2 °F 26.6 °F 57% 30.02 in 10.0 mi WSW 9.2 mph - N/A   Clear
5:15 PM 37.4 °F 32.8 °F 24.8 °F 60% 30.02 in 10.0 mi SW 5.8 mph - N/A   Clear
5:35 PM 37.4 °F 32.1 °F 24.8 °F 60% 30.02 in 10.0 mi SW 6.9 mph - N/A   Clear
5:55 PM 33.8 °F 27.0 °F 23.0 °F 65% 30.04 in 10.0 mi SW 8.1 mph - N/A   Clear
6:15 PM 33.8 °F 26.4 °F 24.8 °F 70% 30.04 in 10.0 mi WSW 9.2 mph - N/A   Clear
6:35 PM 33.8 °F 27.0 °F 24.8 °F 70% 30.04 in 10.0 mi SW 8.1 mph - N/A   Clear
6:55 PM 33.8 °F 27.0 °F 24.8 °F 70% 30.04 in 10.0 mi SW 8.1 mph - N/A   Clear
7:15 PM 33.8 °F 26.4 °F 24.8 °F 70% 30.04 in 10.0 mi WSW 9.2 mph - N/A   Clear
7:35 PM 32.0 °F 24.2 °F 24.8 °F 75% 30.04 in 10.0 mi SW 9.2 mph - N/A   Clear
7:55 PM 33.8 °F 26.4 °F 26.6 °F 75% 30.05 in 10.0 mi SW 9.2 mph - N/A   Clear
8:15 PM 33.8 °F 26.4 °F 26.6 °F 75% 30.05 in 10.0 mi SW 9.2 mph - N/A   Clear
8:35 PM 33.8 °F 27.0 °F 24.8 °F 70% 30.04 in 10.0 mi SW 8.1 mph - N/A   Clear
8:55 PM 33.8 °F 26.4 °F 24.8 °F 70% 30.05 in 10.0 mi West 9.2 mph - N/A   Clear
9:15 PM 32.0 °F 24.8 °F 24.8 °F 75% 30.04 in 10.0 mi WSW 8.1 mph - N/A   Clear
9:35 PM 32.0 °F 24.8 °F 23.0 °F 69% 30.04 in 10.0 mi WSW 8.1 mph - N/A   Clear
9:55 PM 32.0 °F 24.8 °F 23.0 °F 69% 30.04 in 10.0 mi WSW 8.1 mph - N/A   Clear
10:15 PM 32.0 °F 25.6 °F 23.0 °F 69% 30.02 in 10.0 mi WSW 6.9 mph - N/A   Clear
10:35 PM 32.0 °F 25.6 °F 23.0 °F 69% 30.02 in 10.0 mi WSW 6.9 mph - N/A   Clear
10:55 PM 30.2 °F 23.4 °F 23.0 °F 75% 30.02 in 10.0 mi WSW 6.9 mph - N/A   Clear
11:15 PM 32.0 °F 24.8 °F 23.0 °F 69% 30.02 in 10.0 mi SW 8.1 mph - N/A   Clear
11:35 PM 30.2 °F 22.6 °F 23.0 °F 75% 30.01 in 10.0 mi SW 8.1 mph - N/A   Clear
11:55 PM 30.2 °F 22.6 °F 23.0 °F 75% 30.00 in 10.0 mi SW 8.1 mph - N/A   Clear